Location: Habighorst
(52.7089°N, 10.2278°E)
Time: 09:19:52
(UTC+00:00)

Cosmos 1269 Rocket - Pass Details

Date: 13 January 2026
Orbit: 769 x 775 km, 74.1° (Epoch: 18 February)

Event Time Altitude Azimuth Distance (km) Brightness Sun altitude
Rises 05:47:04 0° 197° (SSW) 3,239 7.3 -14.1°
Reaches altitude 10° 05:49:26 10° 196° (SSW) 2,317 6.5 -13.8°
Maximum altitude 05:54:41 74° 112° (ESE) 812 4.3 -13.0°
Drops below altitude 10° 05:59:58 10° 28° (NNE) 2,335 6.6 -12.2°
Sets 06:02:21 0° 27° (NNE) 3,266 7.4 -11.9°
